Location: Santa Maria a Potenza
(43.4833°N, 13.6500°E)
Time: 07:13:44
(UTC+00:00)

Daily predictions for brighter satellites

Satellite Brightness Start Highest point End
(mag) Time Altitude Azimuth Time Altitude Azimuth Time Altitude Azimuth
Cosmos 1725 Rocket 4.4 17:27:51 10° SSW 17:34:07 73° W 17:40:23 10° N
NOSS 2-2 (C) 3.9 17:31:36 10° S 17:34:43 30° ESE 17:37:57 10° NE
CZ-2C R/B 3.3 17:32:44 10° SSE 17:37:47 54° ENE 17:43:10 10° N
Ariane Rocket 4.4 17:34:21 10° ESE 17:37:59 20° ENE 17:41:38 10° NNE
Cosmos 2263 Rocket 2.1 17:32:30 10° SSW 17:38:03 77° ESE 17:43:39 10° NNE
USA 186 3.7 17:41:46 10° E 17:43:27 14° ENE 17:45:09 10° NE
Meteor 2-9 Rocket 4.3 17:37:42 10° S 17:43:31 69° E 17:49:17 10° NNE
Cosmos 1844 Rocket 3.9 17:41:39 10° SE 17:45:20 18° E 17:49:02 10° ENE
Cosmos 2084 Rocket 3.5 17:42:10 10° NW 17:46:38 83° NE 17:51:10 10° SE
HJ-1C 3.6 17:47:43 10° SSE 17:50:52 46° ENE 17:54:04 10° N
Cosmos 2227 4.4 17:45:29 10° SSW 17:51:14 79° WNW 17:56:59 10° NNE
Cosmos 1975 Rocket 3.0 17:48:28 10° N 17:52:46 61° E 17:57:02 10° SSE
Cosmos 1898 Rocket 3.8 17:48:52 10° SSW 17:54:01 73° WNW 17:59:13 10° NNE
Milstar 3 Cent rocket 4.3 17:54:31 10° S 17:55:50 11° S 17:57:03 10° SSE
Cosmos 1943 3.2 17:50:50 10° NNW 17:56:32 87° ENE 18:02:12 10° SSE
COSMO-SKYMED 1 4.3 17:52:35 10° N 17:56:37 38° WNW 18:00:37 10° SW
USA 234 4.1 17:54:02 10° ENE 17:59:22 26° SE 18:04:42 10° S
Cosmos 1867 3.7 17:58:01 10° NNW 18:03:26 57° NE 18:08:20 12° SE
Resurs 01 Rocket 3.7 18:05:19 10° ENE 18:05:59 10° ENE 18:06:49 10° NE
CSL-04 Debris 4.2 18:01:17 10° SSE 18:06:41 87° WSW 18:12:06 10° NNW
Lacrosse 5 rocket 3.8 18:04:46 10° WNW 18:07:54 19° NNW 18:11:09 10° NNE
Cosmos 372 Rocket 4.1 18:03:27 10° S 18:08:32 53° ESE 18:13:37 10° NNE
Sich 1 Rocket 3.5 18:05:48 10° S 18:10:14 71° E 18:14:47 10° NNE
Meteor 1-12 Rocket 4.4 18:08:07 10° S 18:13:52 56° E 18:19:33 10° NNE
Meteor 1-21 4.4 18:09:20 10° NNW 18:14:57 75° W 18:20:31 10° S
CSL-04 Rocket 3.8 18:09:43 10° S 18:15:07 78° WSW 18:20:39 10° NNW
MOS 1 Rocket 3.0 18:10:55 10° NNE 18:15:23 72° E 18:19:40 10° S
Cosmos 1603 4.4 18:11:27 10° NNW 18:16:58 56° WSW 18:22:26 10° S
Cosmos 2150 Rocket 4.4 18:13:34 10° S 18:18:33 41° ESE 18:23:37 10° NE
SJ 16-02 4.2 18:15:21 10° WSW 18:18:41 21° WNW 18:22:02 10° N
OBJECT-B 2.8 18:19:21 15° NE 18:19:21 15° NE 18:20:47 10° NNE
Cosmos 1513 Rocket 4.4 18:15:09 10° S 18:21:23 69° E 18:27:32 10° NNE
Cosmos 1937 Rocket 4.2 18:17:01 10° SW 18:22:11 57° WNW 18:27:21 10° NNE
Cosmos 1125 Rocket 4.2 18:22:01 10° SSE 18:26:40 32° E 18:31:20 10° NE
Okean 2 Rocket 3.0 18:24:20 10° S 18:28:48 71° E 18:33:17 10° NNE
Cosmos 1464 Rocket 3.9 18:24:15 10° S 18:30:20 77° E 18:36:31 10° N
Abrixas rocket 3.4 18:28:03 10° WNW 18:30:36 28° N 18:31:43 21° NE
Okean 1 Rocket 4.2 18:31:11 24° E 18:31:11 24° E 18:34:29 10° NE
SL-08 RB Rocket 3.6 18:26:32 11° SSE 18:31:01 68° ENE 18:35:33 10° N
NOSS 2-2 (E) 4.0 18:28:18 10° SW 18:31:42 49° NW 18:35:31 10° NNE
ATLAS 2AS CENTAUR R/B 3.8 18:30:45 10° SSE 18:36:55 26° ESE 18:43:07 10° ENE
Cosmos 1300 Rocket 3.5 18:33:02 10° S 18:37:25 86° E 18:41:52 10° N
Cosmos 1092 Rocket 4.5 18:32:47 10° N 18:38:28 37° ENE 18:40:57 27° ESE
CZ-2C R/B 2.5 18:37:07 10° SW 18:39:46 20° S 18:39:59 20° S
NOSS 2-2 (D) 3.9 18:36:58 10° SW 18:40:23 51° NW 18:44:09 10° NNE
Meteor 2-5 Rocket 4.5 18:36:39 10° N 18:41:41 32° ENE 18:42:58 29° E
Resurs 1-3 4.3 18:41:32 32° E 18:42:02 33° ENE 18:45:59 10° N
USA 102 3.7 18:38:58 22° SSE 18:43:25 86° WSW 18:45:14 23° NNW
BREEZE-M R/B 4.2 18:34:18 10° WSW 18:47:00 81° NNW 18:48:53 28° ENE
CENTAUR R/B 3.5 18:39:46 10° NNW 18:47:30 49° NE 18:51:58 28° ESE
H-2A R/B 3.0 18:43:23 10° S 18:48:06 45° W 18:52:58 10° NNW
Cosmos 1174 4.4 18:43:54 10° SSW 18:48:43 80° ESE 18:54:52 10° NE
CZ-4 R/B 4.5 18:46:58 10° SW 18:49:39 16° W 18:52:20 10° NW
Cosmos 1674 3.0 18:48:37 10° N 18:52:10 47° ENE 18:52:10 47° ENE
Exosat Rocket 3.7 18:47:54 10° S 18:53:32 52° ESE 18:58:23 10° NNE
ATLAS 3B R/B 4.1 18:48:41 10° NNW 18:53:59 23° NNE 18:56:56 18° ENE
ISS -3.0 18:51:58 10° WSW 18:55:16 52° NNW 18:56:09 38° NNE
Cosmos 1048 Rocket 4.0 18:50:35 10° NNW 18:55:54 71° ENE 18:58:02 37° SE
Cosmos 1536 Rocket 3.5 18:52:25 10° N 18:56:54 87° E 18:58:59 32° S
USA 238 DEB 3.8 18:51:44 10° NNW 18:58:58 71° NE 19:02:30 34° SE
USA 238 3.8 18:51:50 10° NNW 18:59:05 71° NE 19:02:35 34° SE
In-Cosmos 22 4.3 18:54:15 10° NNW 18:59:31 71° W 19:04:25 12° S
ARGOS 4.0 18:56:27 10° S 19:01:37 48° W 19:06:48 10° NNW
Meteor 1-24 Rocket 4.2 18:59:42 10° N 19:04:49 37° ENE 19:04:56 37° ENE
CZ-2C R/B 2.8 19:01:03 10° NNE 19:06:36 82° WNW 19:12:13 10° SSW
Cosmos 1025 Rocket 3.7 19:02:33 10° NNW 19:06:50 53° W 19:10:02 17° SSW
Cosmos 2151 Rocket 4.2 19:05:55 10° SSW 19:10:17 58° W 19:14:44 10° N
USA 186 3.5 19:13:03 26° SW 19:13:51 30° W 19:16:43 10° NNW
KORONAS-FOTON 3.9 19:10:01 10° N 19:13:36 73° N 19:13:36 73° N
Ariane Rocket 3.6 19:12:56 18° S 19:16:31 55° W 19:21:31 10° NNW
SJ-6B 3.4 19:16:15 42° SW 19:17:00 49° W 19:20:39 10° NNW
Cosmos 1844 3.6 19:14:08 10° SSW 19:19:51 87° ESE 19:25:32 10° NNE
Nadezhda 4 Rocket 4.4 19:18:25 10° NNW 19:24:26 61° W 19:29:17 16° S
Cosmos 494 Rocket 3.8 19:20:20 10° NNW 19:25:37 83° ENE 19:26:06 73° SE
NOSS 3-2 (A) 4.1 19:19:03 10° NW 19:26:43 80° WSW 19:30:19 39° SSE
Cosmos 1844 Rocket 3.0 19:23:06 10° SW 19:28:37 65° WNW 19:34:12 10° NNE
SPOT 3 Rocket 3.4 19:32:57 74° S 19:33:25 86° WSW 19:38:36 10° NNW
Resurs 01 Rocket 2.3 19:42:54 50° NNW 19:42:54 50° NNW 19:46:14 10° NNW
USA 234 3.2 19:37:13 15° NE 19:42:53 88° NW 19:49:27 10° SW
Lacrosse 5 rocket 4.0 19:46:07 10° NNW 19:48:35 14° N 19:49:28 14° NNE
OBJECT-B 3.6 19:52:33 18° NW 19:52:33 18° NW 19:53:45 10° NW
Cosmos 1833 Rocket 3.7 19:47:22 10° NNW 19:51:25 34° NNE 19:51:25 34° NNE
ARIANE 5 R/B 4.3 20:01:02 28° N 20:01:02 28° N 20:03:06 10° N
Cosmos 1634 Rocket 4.1 19:59:03 50° SW 20:00:37 68° W 20:06:48 10° N
NOSS 3-2 (C) 4.1 19:53:53 10° NW 20:01:32 76° WSW 20:03:03 61° S
BREEZE-M TANK 3.8 20:00:02 10° W 20:04:37 43° WNW 20:04:37 43° WNW
ATLAS 2AS CENTAUR R/B 3.0 20:19:15 10° SW 20:27:13 79° NW 20:35:09 10° NE
Cosmos 2082 Rocket 3.7 20:29:19 10° NNW 20:32:16 29° N 20:32:16 29° N
CENTAUR R/B 3.6 20:30:32 10° NW 20:38:30 53° WSW 20:39:10 51° SW
COSMOS 2406 4.5 20:39:45 10° NNW 20:43:10 37° NW 20:43:10 37° NW
ATLAS 3B R/B 3.2 20:38:52 10° NW 20:44:10 55° NNW 20:44:10 55° NNW
Terra 4.4 21:02:36 16° N 21:02:36 16° N 21:03:29 10° N
USA 234 4.4 21:24:44 36° N 21:25:27 37° NNW 21:31:21 10° W
